User: anonymous   Login
Location: Ay?beleni
(36.6500°N, 30.3000°E)
Time: 01:53:38
(UTC+00:00)
Language:

ARGOS Delta rocket - Orbit

View from above orbital plane
View from above orbital plane
View from above satellite
View from above satellite

Ground track
Ground track

The orbit data is extracted from the following two-line orbital elements,

1 25637U 99008D   20192.51367097 +.00000004 +00000-0 +90917-5 0  9996
2 25637 096.4460 204.1063 0141323 319.8561 151.3918 14.46669615127159
Epoch (UTC): 10 July 2020 12:19:41
Eccentricity: 0.0141323
inclination: 96.4460°
perigee height: 636 km
apogee height: 837 km
right ascension of ascending node: 204.1063°
argument of perigee: 319.8561°
revolutions per day: 14.46669615
mean anomaly at epoch: 151.3918°
orbit number at epoch: 12715

The dashed part of the orbit path shows where the satellite is in the earth's shadow,  

DLR